| time (UTC) | temp F | wind direction | speed knots | gust knots | rain 1hr in | rain 24hr in | rain mn in | humidity % | barometer mb |
| 20260506235814 | 62 | 216 | 0.0 | 2.6 | 0.00 | 0.20 | 0.20 | 87 | 1007.6 |
| 20260506235314 | 62 | 216 | 0.0 | 2.6 | 0.00 | 0.20 | 0.20 | 86 | 1007.6 |
| 20260506234814 | 62 | 216 | 0.0 | 2.6 | 0.00 | 0.20 | 0.20 | 86 | 1007.4 |
| 20260506233814 | 63 | 305 | 0.0 | 3.5 | 0.00 | 0.20 | 0.20 | 86 | 1007.4 |
| 20260506233314 | 63 | 305 | 0.0 | 4.3 | 0.00 | 0.20 | 0.20 | 85 | 1007.5 |
| 20260506232814 | 63 | 305 | 0.0 | 4.3 | 0.00 | 0.20 | 0.20 | 85 | 1007.4 |
| 20260506231814 | 63 | 252 | 0.0 | 2.6 | 0.00 | 0.20 | 0.20 | 85 | 1007.3 |
| 20260506231314 | 64 | 252 | 0.0 | 5.2 | 0.00 | 0.20 | 0.20 | 84 | 1007.2 |
| 20260506230814 | 64 | 273 | 0.0 | 5.2 | 0.00 | 0.20 | 0.20 | 84 | 1007.1 |
| 20260506230314 | 64 | 308 | 2.6 | 5.2 | 0.00 | 0.20 | 0.20 | 84 | 1007.1 |
| 20260506225814 | 64 | 170 | 0.9 | 4.3 | 0.00 | 0.20 | 0.20 | 83 | 1007.1 |
| 20260506225314 | 64 | 205 | 1.7 | 4.3 | 0.00 | 0.20 | 0.20 | 83 | 1007.1 |
| 20260506224814 | 64 | 231 | 0.9 | 6.1 | 0.00 | 0.20 | 0.20 | 83 | 1007.2 |
| 20260506224314 | 64 | 267 | 2.6 | 6.1 | 0.00 | 0.20 | 0.20 | 83 | 1007.1 |
| 20260506223814 | 64 | 268 | 0.9 | 6.1 | 0.00 | 0.20 | 0.20 | 83 | 1007.1 |
| 20260506223314 | 64 | 242 | 1.7 | 7.0 | 0.00 | 0.20 | 0.20 | 83 | 1007.1 |
| 20260506222314 | 65 | 276 | 5.2 | 7.0 | 0.00 | 0.20 | 0.20 | 82 | 1007.1 |
| 20260506221814 | 65 | 271 | 0.9 | 7.0 | 0.00 | 0.20 | 0.20 | 83 | 1007.0 |
| 20260506221314 | 65 | 239 | 1.7 | 6.1 | 0.00 | 0.20 | 0.20 | 82 | 1006.9 |
| 20260506220814 | 65 | 209 | 2.6 | 7.0 | 0.00 | 0.20 | 0.20 | 83 | 1006.9 |
| 20260506220314 | 64 | 205 | 3.5 | 8.7 | 0.00 | 0.20 | 0.20 | 83 | 1006.5 |
| 20260506215814 | 64 | 231 | 0.9 | 8.7 | 0.00 | 0.20 | 0.20 | 83 | 1006.9 |
| 20260506215314 | 64 | 290 | 0.9 | 6.1 | 0.00 | 0.20 | 0.20 | 83 | 1006.9 |
| 20260506214314 | 64 | 210 | 0.9 | 3.5 | 0.00 | 0.20 | 0.20 | 83 | 1006.9 |
| 20260506213814 | 64 | 223 | 2.6 | 5.2 | 0.00 | 0.20 | 0.20 | 83 | 1006.9 |
| 20260506213314 | 64 | 244 | 0.0 | 7.8 | 0.00 | 0.20 | 0.20 | 83 | 1006.8 |
| 20260506212814 | 64 | 213 | 0.9 | 7.8 | 0.00 | 0.20 | 0.20 | 83 | 1006.8 |
| 20260506212314 | 65 | 223 | 4.3 | 7.0 | 0.00 | 0.20 | 0.20 | 83 | 1006.7 |
| 20260506211814 | 65 | 286 | 1.7 | 7.0 | 0.00 | 0.20 | 0.20 | 83 | 1006.5 |
| 20260506211314 | 65 | 294 | 1.7 | 7.0 | 0.00 | 0.20 | 0.20 | 83 | 1006.4 |
| 20260506210814 | 64 | 346 | 0.0 | 4.3 | 0.00 | 0.20 | 0.20 | 83 | 1006.5 |
| 20260506210314 | 64 | 184 | 1.7 | 6.1 | 0.00 | 0.20 | 0.20 | 83 | 1006.5 |
| 20260506205814 | 64 | 277 | 0.0 | 6.1 | 0.00 | 0.20 | 0.20 | 84 | 1006.5 |
| 20260506204814 | 64 | 246 | 2.6 | 6.1 | 0.00 | 0.20 | 0.20 | 84 | 1006.5 |
| 20260506203814 | 63 | 242 | 2.6 | 5.2 | 0.00 | 0.20 | 0.20 | 85 | 1006.5 |
| 20260506203314 | 63 | 242 | 2.6 | 5.2 | 0.00 | 0.20 | 0.20 | 85 | 1006.5 |
| 20260506202814 | 62 | 268 | 2.6 | 7.8 | 0.00 | 0.20 | 0.20 | 85 | 1006.5 |
| 20260506202314 | 62 | 230 | 0.0 | 7.8 | 0.00 | 0.20 | 0.20 | 85 | 1006.4 |
| 20260506201814 | 62 | 262 | 0.0 | 7.0 | 0.00 | 0.20 | 0.20 | 85 | 1006.5 |
| 20260506201314 | 62 | 227 | 2.6 | 7.0 | 0.00 | 0.20 | 0.20 | 85 | 1006.5 |
| 20260506200814 | 62 | 190 | 2.6 | 7.8 | 0.00 | 0.20 | 0.20 | 85 | 1006.5 |
| 20260506200314 | 62 | 226 | 0.0 | 7.8 | 0.00 | 0.20 | 0.20 | 86 | 1006.4 |
| 20260506195814 | 62 | 254 | 6.1 | 7.0 | 0.00 | 0.20 | 0.20 | 86 | 1006.4 |
| 20260506195314 | 62 | 190 | 0.9 | 7.0 | 0.00 | 0.20 | 0.20 | 85 | 1006.5 |
| 20260506194814 | 62 | 259 | 0.9 | 7.0 | 0.00 | 0.20 | 0.20 | 85 | 1006.5 |
| 20260506194314 | 62 | 248 | 2.6 | 6.1 | 0.00 | 0.20 | 0.20 | 85 | 1006.6 |
| 20260506193814 | 62 | 142 | 2.6 | 6.1 | 0.00 | 0.20 | 0.20 | 86 | 1006.6 |
| 20260506193314 | 62 | 261 | 2.6 | 9.6 | 0.00 | 0.20 | 0.20 | 86 | 1006.7 |
| 20260506192814 | 61 | 29 | 1.7 | 9.6 | 0.00 | 0.20 | 0.20 | 86 | 1006.6 |
| 20260506192314 | 61 | 210 | 2.6 | 7.8 | 0.00 | 0.20 | 0.20 | 86 | 1006.7 |
| 20260506191814 | 61 | 261 | 2.6 | 7.8 | 0.00 | 0.20 | 0.20 | 87 | 1006.8 |
| 20260506191314 | 61 | 233 | 0.9 | 7.8 | 0.00 | 0.20 | 0.20 | 86 | 1006.8 |
| 20260506190814 | 61 | 173 | 4.3 | 8.7 | 0.00 | 0.20 | 0.20 | 87 | 1006.8 |
| 20260506190314 | 60 | 263 | 2.6 | 8.7 | 0.00 | 0.20 | 0.20 | 87 | 1006.8 |
| 20260506185814 | 60 | 161 | 3.5 | 8.7 | 0.00 | 0.20 | 0.20 | 87 | 1006.9 |
| 20260506185314 | 60 | 208 | 0.9 | 7.8 | 0.00 | 0.20 | 0.20 | 87 | 1007.0 |
| 20260506184814 | 60 | 216 | 3.5 | 7.8 | 0.00 | 0.20 | 0.20 | 87 | 1007.0 |
| 20260506184314 | 60 | 240 | 4.3 | 4.3 | 0.00 | 0.20 | 0.20 | 87 | 1007.1 |
| 20260506183814 | 60 | 174 | 0.0 | 3.5 | 0.00 | 0.20 | 0.20 | 87 | 1007.2 |
| 20260506183314 | 60 | 209 | 0.9 | 4.3 | 0.00 | 0.20 | 0.20 | 87 | 1007.1 |
| 20260506182814 | 60 | 189 | 0.9 | 7.0 | 0.00 | 0.20 | 0.20 | 87 | 1007.2 |
| 20260506182314 | 60 | 231 | 0.9 | 8.7 | 0.00 | 0.20 | 0.20 | 86 | 1007.2 |
| 20260506181814 | 59 | 242 | 2.6 | 8.7 | 0.00 | 0.20 | 0.20 | 86 | 1007.2 |
| 20260506181314 | 59 | 360 | 2.6 | 8.7 | 0.00 | 0.20 | 0.20 | 87 | 1007.3 |
| 20260506180814 | 59 | 201 | 8.7 | 8.7 | 0.01 | 0.20 | 0.20 | 86 | 1007.3 |
| 20260506180314 | 59 | 260 | 1.7 | 8.7 | 0.02 | 0.20 | 0.20 | 86 | 1007.3 |
| 20260506175314 | 59 | 248 | 1.7 | 10.4 | 0.05 | 0.20 | 0.20 | 86 | 1007.4 |
| 20260506174814 | 59 | 221 | 0.9 | 10.4 | 0.05 | 0.20 | 0.20 | 87 | 1007.4 |
| 20260506174314 | 59 | 244 | 6.1 | 9.6 | 0.05 | 0.20 | 0.20 | 87 | 1007.4 |
| 20260506173814 | 59 | 225 | 1.7 | 6.1 | 0.05 | 0.20 | 0.20 | 87 | 1007.3 |
| 20260506173314 | 59 | 230 | 4.3 | 7.0 | 0.05 | 0.20 | 0.20 | 87 | 1007.4 |
| 20260506172814 | 59 | 279 | 0.0 | 7.0 | 0.05 | 0.20 | 0.20 | 87 | 1007.3 |
| 20260506172314 | 59 | 183 | 2.6 | 4.3 | 0.05 | 0.20 | 0.20 | 87 | 1007.3 |
| 20260506171814 | 59 | 282 | 0.9 | 4.3 | 0.05 | 0.20 | 0.20 | 87 | 1007.3 |
| 20260506171314 | 59 | 188 | 0.9 | 6.1 | 0.06 | 0.20 | 0.20 | 86 | 1007.3 |
| 20260506170814 | 59 | 204 | 4.3 | 7.0 | 0.05 | 0.19 | 0.19 | 86 | 1007.4 |
| 20260506170314 | 59 | 196 | 4.3 | 8.7 | 0.05 | 0.18 | 0.18 | 86 | 1007.6 |
| 20260506165814 | 59 | 193 | 4.3 | 8.7 | 0.03 | 0.16 | 0.16 | 86 | 1007.7 |
| 20260506165314 | 59 | 215 | 2.6 | 7.0 | 0.03 | 0.15 | 0.15 | 86 | 1007.7 |
| 20260506164814 | 59 | 205 | 1.7 | 5.2 | 0.03 | 0.15 | 0.15 | 86 | 1007.6 |
| 20260506163814 | 59 | 226 | 0.9 | 8.7 | 0.04 | 0.15 | 0.15 | 86 | 1007.6 |
| 20260506163314 | 60 | 129 | 2.6 | 7.8 | 0.05 | 0.15 | 0.15 | 86 | 1007.8 |
| 20260506162814 | 60 | 238 | 0.9 | 7.8 | 0.05 | 0.15 | 0.15 | 86 | 1007.8 |
| 20260506161814 | 59 | 216 | 5.2 | 11.3 | 0.07 | 0.15 | 0.15 | 86 | 1007.0 |
| 20260506161314 | 59 | 164 | 0.0 | 11.3 | 0.06 | 0.14 | 0.14 | 86 | 1007.0 |
| 20260506160314 | 59 | 209 | 6.1 | 6.1 | 0.06 | 0.13 | 0.13 | 87 | 1007.4 |
| 20260506155814 | 59 | 142 | 0.9 | 2.6 | 0.06 | 0.13 | 0.13 | 87 | 1007.8 |
| 20260506155314 | 60 | 138 | 0.0 | 5.2 | 0.06 | 0.12 | 0.12 | 87 | 1008.1 |
| 20260506154314 | 59 | 302 | 2.6 | 3.5 | 0.06 | 0.12 | 0.12 | 86 | 1008.4 |
| 20260506153814 | 60 | 236 | 0.0 | 2.6 | 0.05 | 0.11 | 0.11 | 86 | 1008.4 |
| 20260506153314 | 60 | 219 | 1.7 | 6.1 | 0.05 | 0.10 | 0.10 | 86 | 1008.4 |
| 20260506152814 | 60 | 218 | 0.9 | 6.1 | 0.06 | 0.10 | 0.10 | 86 | 1008.4 |
| 20260506152314 | 60 | 182 | 4.3 | 5.2 | 0.05 | 0.09 | 0.09 | 86 | 1008.6 |
| 20260506151814 | 60 | 196 | 0.0 | 4.3 | 0.05 | 0.08 | 0.08 | 86 | 1008.6 |
| 20260506151314 | 60 | 196 | 0.9 | 7.0 | 0.06 | 0.08 | 0.08 | 86 | 1008.6 |
| 20260506150814 | 60 | 243 | 1.7 | 9.6 | 0.05 | 0.07 | 0.07 | 86 | 1008.6 |
| 20260506150314 | 60 | 236 | 4.3 | 9.6 | 0.06 | 0.07 | 0.07 | 85 | 1008.5 |
| 20260506145814 | 60 | 232 | 4.3 | 7.0 | 0.06 | 0.07 | 0.07 | 85 | 1008.6 |
| 20260506145314 | 60 | 355 | 0.9 | 2.6 | 0.06 | 0.06 | 0.06 | 85 | 1008.5 |
| 20260506144314 | 61 | 5 | 0.0 | 3.5 | 0.06 | 0.06 | 0.06 | 86 | 1008.5 |
| 20260506143814 | 61 | 269 | 0.0 | 3.5 | 0.06 | 0.06 | 0.06 | 85 | 1008.5 |
| 20260506143314 | 61 | 226 | 1.7 | 3.5 | 0.05 | 0.05 | 0.05 | 85 | 1008.4 |
| 20260506142814 | 60 | 240 | 0.0 | 5.2 | 0.04 | 0.04 | 0.04 | 85 | 1008.4 |
| 20260506142314 | 60 | 240 | 2.6 | 5.2 | 0.04 | 0.04 | 0.04 | 85 | 1008.3 |
| 20260506141314 | 61 | 144 | 0.0 | 4.3 | 0.02 | 0.02 | 0.02 | 84 | 1008.4 |
| 20260506140814 | 61 | 252 | 0.9 | 5.2 | 0.02 | 0.02 | 0.02 | 84 | 1008.5 |
| 20260506140314 | 61 | 252 | 1.7 | 7.8 | 0.01 | 0.01 | 0.01 | 83 | 1008.5 |
| 20260506135814 | 61 | 244 | 0.9 | 7.8 | 0.01 | 0.01 | 0.01 | 83 | 1008.5 |
| 20260506134814 | 62 | 192 | 0.0 | 3.5 | 0.00 | 0.00 | 0.00 | 82 | 1008.4 |
| 20260506133314 | 62 | 230 | 2.6 | 3.5 | 0.00 | 0.00 | 0.00 | 81 | 1008.4 |
| 20260506132814 | 62 | 274 | 2.6 | 6.1 | 0.00 | 0.00 | 0.00 | 82 | 1008.5 |
| 20260506132314 | 62 | 252 | 0.9 | 7.0 | 0.00 | 0.00 | 0.00 | 82 | 1008.6 |
| 20260506131814 | 62 | 219 | 0.9 | 7.0 | 0.00 | 0.00 | 0.00 | 82 | 1008.6 |
| 20260506131314 | 62 | 242 | 3.5 | 4.3 | 0.00 | 0.00 | 0.00 | 81 | 1008.6 |
| 20260506130814 | 62 | 288 | 1.7 | 6.1 | 0.00 | 0.00 | 0.00 | 81 | 1008.7 |
| 20260506130314 | 62 | 213 | 0.9 | 7.0 | 0.00 | 0.00 | 0.00 | 80 | 1008.6 |
| 20260506125814 | 62 | 256 | 2.6 | 7.0 | 0.00 | 0.00 | 0.00 | 80 | 1008.7 |
| 20260506125314 | 62 | 212 | 2.6 | 7.0 | 0.00 | 0.00 | 0.00 | 80 | 1008.9 |
| 20260506124814 | 62 | 297 | 3.5 | 7.8 | 0.00 | 0.00 | 0.00 | 79 | 1008.9 |
| 20260506124314 | 62 | 261 | 2.6 | 7.8 | 0.00 | 0.00 | 0.00 | 78 | 1008.9 |
| 20260506123314 | 63 | 209 | 1.7 | 12.2 | 0.00 | 0.00 | 0.00 | 77 | 1008.8 |
| 20260506122814 | 63 | 220 | 5.2 | 10.4 | 0.00 | 0.00 | 0.00 | 76 | 1008.7 |
| 20260506122314 | 63 | 200 | 4.3 | 7.8 | 0.00 | 0.00 | 0.00 | 76 | 1008.8 |
| 20260506121814 | 63 | 213 | 0.9 | 11.3 | 0.00 | 0.00 | 0.00 | 75 | 1008.7 |
| 20260506121314 | 64 | 241 | 3.5 | 11.3 | 0.00 | 0.00 | 0.00 | 74 | 1008.6 |
| 20260506120314 | 64 | 180 | 1.7 | 10.4 | 0.00 | 0.00 | 0.00 | 74 | 1008.5 |
| 20260506115814 | 64 | 286 | 2.6 | 10.4 | 0.00 | 0.00 | 0.00 | 74 | 1008.6 |
| 20260506115314 | 64 | 233 | 1.7 | 10.4 | 0.00 | 0.00 | 0.00 | 74 | 1008.6 |
| 20260506114814 | 64 | 182 | 5.2 | 8.7 | 0.00 | 0.00 | 0.00 | 74 | 1008.6 |
| 20260506114314 | 63 | 231 | 4.3 | 8.7 | 0.00 | 0.00 | 0.00 | 74 | 1008.6 |
| 20260506113814 | 63 | 238 | 0.9 | 6.1 | 0.00 | 0.00 | 0.00 | 75 | 1008.5 |
| 20260506113314 | 63 | 261 | 3.5 | 7.8 | 0.00 | 0.00 | 0.00 | 75 | 1008.5 |
| 20260506112314 | 63 | 22 | 2.6 | 7.8 | 0.00 | 0.00 | 0.00 | 74 | 1008.4 |
| 20260506111813 | 63 | 200 | 1.7 | 7.0 | 0.00 | 0.00 | 0.00 | 74 | 1008.4 |
| 20260506111314 | 63 | 193 | 1.7 | 7.0 | 0.00 | 0.00 | 0.00 | 74 | 1008.5 |
| 20260506110813 | 63 | 246 | 1.7 | 7.0 | 0.00 | 0.00 | 0.00 | 74 | 1008.6 |
| 20260506110314 | 64 | 271 | 1.7 | 7.0 | 0.00 | 0.00 | 0.00 | 74 | 1008.7 |
| 20260506105814 | 64 | 226 | 3.5 | 6.1 | 0.00 | 0.00 | 0.00 | 74 | 1008.6 |
| 20260506105314 | 64 | 221 | 0.0 | 10.4 | 0.00 | 0.00 | 0.00 | 74 | 1008.6 |
| 20260506104813 | 64 | 194 | 3.5 | 10.4 | 0.00 | 0.00 | 0.00 | 73 | 1008.2 |
| 20260506104314 | 64 | 160 | 3.5 | 8.7 | 0.00 | 0.00 | 0.00 | 74 | 1008.3 |
| 20260506103814 | 64 | 271 | 1.7 | 8.7 | 0.00 | 0.00 | 0.00 | 73 | 1008.4 |
| 20260506103314 | 63 | 311 | 5.2 | 8.7 | 0.00 | 0.00 | 0.00 | 73 | 1008.3 |
| 20260506102814 | 63 | 287 | 1.7 | 8.7 | 0.00 | 0.00 | 0.00 | 73 | 1008.2 |
| 20260506102314 | 63 | 273 | 1.7 | 4.3 | 0.00 | 0.00 | 0.00 | 73 | 1008.2 |
| 20260506101813 | 63 | 250 | 2.6 | 4.3 | 0.00 | 0.00 | 0.00 | 73 | 1008.2 |
| 20260506101314 | 64 | 183 | 1.7 | 4.3 | 0.00 | 0.00 | 0.00 | 73 | 1008.1 |
| 20260506100814 | 64 | 134 | 0.9 | 10.4 | 0.00 | 0.00 | 0.00 | 73 | 1008.0 |
| 20260506095813 | 64 | 156 | 6.1 | 7.0 | 0.00 | 0.00 | 0.00 | 73 | 1008.0 |
| 20260506095314 | 64 | 212 | 0.0 | 7.8 | 0.00 | 0.00 | 0.00 | 72 | 1008.2 |
| 20260506094814 | 64 | 215 | 3.5 | 7.8 | 0.00 | 0.00 | 0.00 | 72 | 1008.3 |
| 20260506094314 | 64 | 319 | 2.6 | 5.2 | 0.00 | 0.00 | 0.00 | 72 | 1008.4 |
| 20260506093814 | 64 | 256 | 0.9 | 8.7 | 0.00 | 0.00 | 0.00 | 72 | 1008.3 |
| 20260506093314 | 64 | 236 | 1.7 | 8.7 | 0.00 | 0.00 | 0.00 | 72 | 1008.2 |
| 20260506091814 | 64 | 232 | 0.9 | 4.3 | 0.00 | 0.00 | 0.00 | 71 | 1008.2 |
| 20260506090813 | 64 | 274 | 2.6 | 9.6 | 0.00 | 0.00 | 0.00 | 71 | 1008.3 |
| 20260506085814 | 64 | 298 | 0.9 | 2.6 | 0.00 | 0.00 | 0.00 | 71 | 1008.3 |
| 20260506085314 | 64 | 196 | 1.7 | 4.3 | 0.00 | 0.00 | 0.00 | 70 | 1008.3 |
| 20260506084814 | 65 | 196 | 0.9 | 4.3 | 0.00 | 0.00 | 0.00 | 70 | 1008.5 |
| 20260506084314 | 65 | 264 | 2.6 | 5.2 | 0.00 | 0.00 | 0.00 | 69 | 1008.5 |
| 20260506083814 | 65 | 164 | 1.7 | 7.8 | 0.00 | 0.00 | 0.00 | 68 | 1008.5 |
| 20260506083314 | 65 | 200 | 2.6 | 7.8 | 0.00 | 0.00 | 0.00 | 68 | 1008.5 |
| 20260506082814 | 65 | 207 | 2.6 | 7.8 | 0.00 | 0.00 | 0.00 | 68 | 1008.5 |
| 20260506082314 | 65 | 32 | 0.0 | 6.1 | 0.00 | 0.00 | 0.00 | 68 | 1008.5 |
| 20260506081314 | 65 | 140 | 3.5 | 4.3 | 0.00 | 0.00 | 0.00 | 67 | 1008.6 |
| 20260506080814 | 65 | 251 | 1.7 | 4.3 | 0.00 | 0.00 | 0.00 | 67 | 1008.6 |
| 20260506080314 | 65 | 202 | 3.5 | 6.1 | 0.00 | 0.00 | 0.00 | 67 | 1008.7 |
| 20260506072814 | 65 | 158 | 1.7 | 7.0 | 0.00 | 0.00 | 0.00 | 65 | 1008.6 |
| 20260506071814 | 66 | 224 | 0.9 | 8.7 | 0.00 | 0.00 | 0.00 | 64 | 1008.7 |
| 20260506071314 | 65 | 268 | 6.1 | 7.8 | 0.00 | 0.00 | 0.00 | 64 | 1008.7 |
| 20260506070814 | 65 | 268 | 2.6 | 3.5 | 0.00 | 0.00 | 0.00 | 64 | 1008.7 |
| 20260506070314 | 65 | 267 | 0.0 | 7.8 | 0.00 | 0.00 | 0.00 | 65 | 1008.9 |
| 20260506062314 | 63 | 273 | 0.0 | 2.6 | 0.00 | 0.00 | 0.00 | 67 | 1009.2 |
| 20260506061313 | 64 | 273 | 1.7 | 3.5 | 0.00 | 0.00 | 0.00 | 64 | 1009.3 |
| 20260506060813 | 65 | 273 | 1.7 | 3.5 | 0.00 | 0.00 | 0.00 | 62 | 1009.4 |
| 20260506060314 | 65 | 273 | 1.7 | 3.5 | 0.00 | 0.00 | 0.00 | 62 | 1009.4 |
| 20260506051314 | 66 | 246 | 0.9 | 7.0 | 0.00 | 0.00 | 0.00 | 60 | 1009.8 |
| 20260506050813 | 66 | 245 | 0.9 | 7.0 | 0.00 | 0.00 | 0.00 | 59 | 1009.9 |
| 20260506050313 | 66 | 296 | 1.7 | 5.2 | 0.00 | 0.00 | 0.00 | 60 | 1009.9 |
| 20260506044813 | 66 | 171 | 0.9 | 6.1 | 0.00 | 0.00 | 0.00 | 59 | 1009.9 |
| 20260506044313 | 67 | 205 | 5.2 | 7.0 | 0.00 | 0.00 | 0.00 | 58 | 1009.9 |
| 20260506043814 | 66 | 263 | 1.7 | 7.0 | 0.00 | 0.00 | 0.00 | 59 | 1010.0 |
| 20260506043314 | 67 | 257 | 0.9 | 7.8 | 0.00 | 0.00 | 0.00 | 57 | 1010.0 |
| 20260506042813 | 67 | 217 | 2.6 | 9.6 | 0.00 | 0.00 | 0.00 | 57 | 1009.9 |
| 20260506042314 | 66 | 221 | 3.5 | 9.6 | 0.00 | 0.00 | 0.00 | 58 | 1009.8 |
| 20260506041814 | 66 | 221 | 0.9 | 8.7 | 0.00 | 0.00 | 0.00 | 58 | 1010.0 |
| 20260506041313 | 66 | 140 | 0.9 | 7.0 | 0.00 | 0.00 | 0.00 | 59 | 1010.1 |
| 20260506040313 | 66 | 222 | 0.9 | 5.2 | 0.00 | 0.00 | 0.00 | 58 | 1009.9 |
| 20260506035814 | 64 | 221 | 3.5 | 3.5 | 0.00 | 0.00 | 0.00 | 60 | 1009.8 |
| 20260506035313 | 65 | 221 | 0.0 | 3.5 | 0.00 | 0.00 | 0.00 | 58 | 1009.8 |
| 20260506034814 | 66 | 203 | 0.9 | 6.1 | 0.00 | 0.00 | 0.00 | 57 | 1009.8 |
| 20260506034313 | 67 | 274 | 0.9 | 6.1 | 0.00 | 0.00 | 0.00 | 56 | 1009.9 |
| 20260506033813 | 66 | 204 | 1.7 | 9.6 | 0.00 | 0.00 | 0.00 | 57 | 1009.8 |
| 20260506032813 | 65 | 126 | 2.6 | 6.1 | 0.00 | 0.00 | 0.00 | 59 | 1009.8 |
| 20260506031813 | 65 | 244 | 0.9 | 3.5 | 0.00 | 0.00 | 0.00 | 58 | 1009.7 |
| 20260506031313 | 65 | 228 | 0.9 | 2.6 | 0.00 | 0.00 | 0.00 | 58 | 1009.7 |
| 20260506030814 | 66 | 193 | 1.7 | 3.5 | 0.00 | 0.00 | 0.00 | 57 | 1009.8 |
| 20260506030313 | 67 | 196 | 1.7 | 6.1 | 0.00 | 0.00 | 0.00 | 56 | 1009.9 |
| 20260506025814 | 68 | 221 | 0.9 | 7.0 | 0.00 | 0.00 | 0.00 | 54 | 1009.8 |
| 20260506025313 | 67 | 220 | 3.5 | 7.0 | 0.00 | 0.00 | 0.00 | 56 | 1009.7 |
| 20260506024814 | 65 | 294 | 3.5 | 3.5 | 0.00 | 0.00 | 0.00 | 58 | 1009.8 |
| 20260506024314 | 66 | 306 | 0.9 | 6.1 | 0.00 | 0.00 | 0.00 | 57 | 1009.7 |
| 20260506023813 | 67 | 211 | 0.0 | 6.1 | 0.00 | 0.00 | 0.00 | 56 | 1009.8 |
| 20260506023314 | 66 | 323 | 2.6 | 3.5 | 0.00 | 0.00 | 0.00 | 57 | 1009.8 |
| 20260506022313 | 67 | 221 | 0.0 | 4.3 | 0.00 | 0.00 | 0.00 | 56 | 1009.8 |
| 20260506021813 | 67 | 221 | 1.7 | 4.3 | 0.00 | 0.00 | 0.00 | 54 | 1009.8 |
| 20260506021313 | 67 | 285 | 2.6 | 6.1 | 0.00 | 0.00 | 0.00 | 55 | 1009.9 |
| 20260506020814 | 68 | 285 | 1.7 | 6.1 | 0.00 | 0.00 | 0.00 | 53 | 1009.8 |
| 20260506020313 | 68 | 218 | 4.3 | 6.1 | 0.00 | 0.00 | 0.00 | 53 | 1009.8 |
| 20260506015814 | 67 | 225 | 6.1 | 6.1 | 0.00 | 0.00 | 0.00 | 55 | 1009.7 |
| 20260506014814 | 67 | 17 | 0.9 | 3.5 | 0.00 | 0.00 | 0.00 | 53 | 1009.5 |
| 20260506014314 | 69 | 17 | 0.0 | 2.6 | 0.00 | 0.00 | 0.00 | 50 | 1009.5 |
| 20260506013814 | 69 | 17 | 0.0 | 4.3 | 0.00 | 0.00 | 0.00 | 51 | 1009.4 |
| 20260506013314 | 69 | 17 | 1.7 | 6.1 | 0.00 | 0.00 | 0.00 | 51 | 1009.4 |
| 20260506012814 | 69 | 140 | 2.6 | 6.1 | 0.00 | 0.00 | 0.00 | 50 | 1009.4 |
| 20260506012313 | 69 | 211 | 1.7 | 3.5 | 0.00 | 0.00 | 0.00 | 50 | 1009.3 |
| 20260506011314 | 71 | 255 | 0.0 | 6.1 | 0.00 | 0.00 | 0.00 | 47 | 1009.2 |
| 20260506010814 | 70 | 242 | 1.7 | 5.2 | 0.00 | 0.00 | 0.00 | 47 | 1009.2 |
| 20260506010313 | 70 | 227 | 3.5 | 5.2 | 0.00 | 0.00 | 0.00 | 47 | 1009.1 |
| 20260506005813 | 71 | 294 | 0.9 | 6.1 | 0.00 | 0.00 | 0.00 | 47 | 1009.1 |
| 20260506005314 | 72 | 193 | 0.9 | 6.1 | 0.00 | 0.00 | 0.00 | 44 | 1008.9 |
| 20260506004813 | 71 | 311 | 1.7 | 5.2 | 0.00 | 0.00 | 0.00 | 46 | 1008.9 |
| 20260506003814 | 72 | 198 | 1.7 | 7.0 | 0.00 | 0.00 | 0.00 | 44 | 1008.9 |
| 20260506003313 | 72 | 242 | 2.6 | 7.0 | 0.00 | 0.00 | 0.00 | 44 | 1008.8 |
| 20260506002813 | 72 | 305 | 2.6 | 6.1 | 0.00 | 0.00 | 0.00 | 45 | 1008.7 |
| 20260506002314 | 72 | 222 | 2.6 | 4.3 | 0.00 | 0.00 | 0.00 | 45 | 1008.6 |
| 20260506001813 | 72 | 290 | 1.7 | 7.8 | 0.00 | 0.00 | 0.00 | 44 | 1008.6 |
| 20260506001314 | 72 | 205 | 3.5 | 7.8 | 0.00 | 0.00 | 0.00 | 44 | 1008.6 |
| 20260506000814 | 71 | 26 | 0.9 | 3.5 | 0.00 | 0.00 | 0.00 | 47 | 1008.4 |